Location: Walnut Point State Park
(39.6958°N, 88.0345°W)
Time: 17:15:10
(UTC-05:00)

Amateur Radio Satellites - All Passes

Search period start: 01 August 2015 16:45
Search period end: 02 August 2015 16:45
Location: Walnut Point State Park, 39.6958°N, 88.0345°W

Satellite Date Start Highest point End Downlink Frequencies (MHz)
Time Altitude Azimuth
STARS 01 Aug 16:46:56 16:51:12 49° 287° (WNW) 16:55:28 437.465
Cosmos 2499 01 Aug 16:53:14 16:53:58 10° 54° (NE) 16:55:29 435.465 / 435.565
JAS-2 01 Aug 16:59:21 17:03:15 16° 276° (W) 17:07:05 435.910
KKS-1 01 Aug 17:16:09 17:18:58 16° 294° (WNW) 17:21:36 437.445
CUTE-I 01 Aug 17:20:04 17:24:12 24° 66° (ENE) 17:28:29 437.470
GONETS M04 01 Aug 17:20:23 17:29:04 68° 79° (E) 17:37:47
HORYU 2 01 Aug 17:21:17 17:23:17 12° 271° (W) 17:25:02 437.375
VERMONT LUNAR 01 Aug 17:48:46 17:51:23 24° 153° (SSE) 17:54:03 437.305
AO-7 01 Aug 17:59:42 18:04:37 16° 273° (W) 18:08:58 29.400- 29.500
Cubesat XI-IV 01 Aug 18:02:55 18:08:11 59° 73° (ENE) 18:13:28 437.490
MOZHAYETS 4 01 Aug 18:09:04 18:13:15 34° 289° (WNW) 18:17:21
SO-50 01 Aug 18:11:36 18:16:32 63° 55° (NE) 18:21:21 436.795
PCSat 01 Aug 18:23:31 18:28:56 67° 59° (ENE) 18:34:19 145.827
CUBESAT XI-V 01 Aug 18:27:20 18:31:24 31° 95° (E) 18:35:29 437.345
Cosmos 2499 01 Aug 18:40:58 18:49:32 56° 77° (ENE) 18:58:14 435.465 / 435.565
BRITE-PL 01 Aug 18:50:57 18:53:48 18° 69° (ENE) 18:56:43 437.365/2234.400
CUTE-I 01 Aug 18:58:56 19:04:03 43° 262° (W) 19:09:09 437.470
GOMX 1 01 Aug 19:00:21 19:02:01 12° 66° (ENE) 19:03:53 467.674
HO-68 01 Aug 19:07:37 19:12:40 22° 59° (ENE) 19:17:58 435.675
STRAND 1 01 Aug 19:09:20 19:13:29 25° 94° (E) 19:17:43 437.568
GONETS M04 01 Aug 19:18:32 19:25:15 24° 277° (W) 19:31:38
PRISM 01 Aug 19:19:57 19:23:12 23° 94° (E) 19:26:31 437.425
VERMONT LUNAR 01 Aug 19:24:42 19:27:53 83° 168° (SSE) 19:31:05 437.305
Cubesat XI-IV 01 Aug 19:45:13 19:48:45 17° 270° (W) 19:52:02 437.490
PHONESAT 2.4 01 Aug 19:47:32 19:50:36 29° 154° (SSE) 19:53:42 2401.200-2431.200
SO-50 01 Aug 19:53:40 19:56:36 15° 251° (WSW) 19:59:17 436.795
RS-15 01 Aug 20:00:16 20:07:50 23° 103° (ESE) 20:16:07 29.354- 29.394
CUBESAT XI-V 01 Aug 20:04:57 20:08:44 25° 291° (WNW) 20:12:24 437.345
PCSat 01 Aug 20:08:34 20:11:50 16° 254° (WSW) 20:14:51 145.827
COMPASS 1 01 Aug 20:18:20 20:21:53 28° 71° (ENE) 20:25:32 437.405
DOVE 4 01 Aug 20:21:12 20:25:17 59° 75° (ENE) 20:29:22 437.250
CINEMA 3 01 Aug 20:26:43 20:30:16 28° 70° (ENE) 20:33:55 145.822/145.860
BRITE-PL 01 Aug 20:28:04 20:32:11 36° 262° (W) 20:36:05 437.365/2234.400
SEEDS 01 Aug 20:33:43 20:37:51 53° 75° (ENE) 20:42:02 437.485
Cosmos 2499 01 Aug 20:34:48 20:42:22 32° 274° (W) 20:49:44 435.465 / 435.565
GOMX 1 01 Aug 20:35:40 20:39:50 52° 260° (W) 20:43:53 467.674
CUTE 1.7 + AOD 2 01 Aug 20:37:27 20:41:42 75° 77° (ENE) 20:46:00 437.475
UWE-3 01 Aug 20:38:11 20:40:20 14° 66° (ENE) 20:42:42 435.000/436.395/437.385
DELFI C3 01 Aug 20:42:55 20:44:40 13° 66° (ENE) 20:46:36 145.870
Oscar 11 01 Aug 20:44:57 20:48:13 22° 69° (ENE) 20:51:36 145.826/435.025
CANX-2 01 Aug 20:45:55 20:50:11 79° 258° (WSW) 20:54:31 2200.000
STRAND 1 01 Aug 20:48:07 20:52:48 36° 290° (WNW) 20:57:23 437.568
HO-68 01 Aug 20:52:39 20:59:47 73° 256° (WSW) 21:06:58 435.675
CUBEBUG 2 01 Aug 20:53:34 20:57:01 26° 70° (ENE) 21:00:38 437.445
PRISM 01 Aug 20:55:08 20:58:38 26° 290° (WNW) 21:02:01 437.425
AAUSAT CUBESAT 2 01 Aug 20:58:32 21:02:42 68° 76° (ENE) 21:06:55 437.432
VERMONT LUNAR 01 Aug 21:01:29 21:04:41 77° 7° (N) 21:07:51 437.305
ISS 01 Aug 21:07:19 21:10:33 85° 145° (SE) 21:13:50 145.825
PHONESAT 2.4 01 Aug 21:24:51 21:28:22 87° 170° (S) 21:31:54 2401.200-2431.200
Cosmos 2491 01 Aug 21:30:34 21:31:55 11° 53° (NE) 21:34:01 435.465 / 435.565
M-CUBED/EXP-1 PRIME 01 Aug 21:46:44 21:50:24 22° 97° (E) 21:54:07 437.505
ZACube-1 01 Aug 21:46:52 21:51:00 63° 75° (ENE) 21:55:14 437.345
COMPASS 1 01 Aug 21:54:08 21:57:33 23° 266° (W) 22:00:55 437.405
CINEMA 3 01 Aug 22:04:18 22:07:32 21° 267° (W) 22:10:43 145.822/145.860
50 SAT 01 Aug 22:05:48 22:08:25 18° 68° (ENE) 22:11:09 437.505
RS-15 01 Aug 22:08:03 22:18:58 84° 301° (WNW) 22:30:22 29.354- 29.394
FUNcube-1 01 Aug 22:08:13 22:12:23 75° 258° (WSW) 22:16:41 145.935
ANTELSAT 01 Aug 22:08:57 22:10:07 11° 87° (E) 22:11:37 437.575/2403.000
SEEDS 01 Aug 22:12:10 22:14:02 12° 271° (W) 22:15:41 437.485
UWE-3 01 Aug 22:12:25 22:16:28 48° 261° (W) 22:20:38 435.000/436.395/437.385
AUBIESAT-1 01 Aug 22:14:57 22:19:21 37° 101° (ESE) 22:23:37 437.475
DELFI C3 01 Aug 22:15:23 22:19:20 51° 261° (W) 22:23:19 145.870
Oscar 11 01 Aug 22:20:20 22:24:14 32° 264° (W) 22:28:08 145.826/435.025
UKube-1 01 Aug 22:21:26 22:25:27 40° 72° (ENE) 22:29:31 .
HUMSAT D 01 Aug 22:27:57 22:32:05 75° 76° (ENE) 22:36:17 437.325/437.525
AISAT 01 Aug 22:29:06 22:33:00 32° 71° (ENE) 22:36:57 437.250
CUBEBUG 2 01 Aug 22:30:15 22:33:43 24° 266° (W) 22:37:09 437.445
BEESAT 2 01 Aug 22:36:13 22:38:12 14° 110° (ESE) 22:40:24 435.950
VERMONT LUNAR 01 Aug 22:38:17 22:41:20 44° 201° (SSW) 22:44:22 437.305
CUBEBUG 1 01 Aug 22:41:31 22:44:58 24° 69° (ENE) 22:48:30 437.445
ISS 01 Aug 22:45:02 22:47:22 18° 340° (NNW) 22:49:40 145.825
HO-68 01 Aug 22:47:10 22:48:54 11° 276° (W) 22:50:01 435.675
AIST 1 01 Aug 22:49:57 22:53:46 32° 76° (ENE) 22:57:37
DX 1 01 Aug 22:50:17 22:54:38 85° 256° (WSW) 22:59:00 434.975-435.025
UNISAT 6 01 Aug 22:57:49 23:02:12 38° 97° (E) 23:06:35 437.425
PHONESAT 2.4 01 Aug 23:02:54 23:06:25 80° 6° (N) 23:09:55 2401.200-2431.200
POPSAT HIP 1 01 Aug 23:03:07 23:05:27 15° 91° (E) 23:07:59 437.405
VELOX 1 01 Aug 23:07:19 23:11:44 83° 76° (ENE) 23:16:09 145.980
QB50P2 01 Aug 23:10:28 23:13:26 19° 92° (E) 23:16:32 145.880/145.840
BEESAT 3 01 Aug 23:12:55 23:16:47 46° 117° (ESE) 23:20:45 437.485
SPROUT 01 Aug 23:15:33 23:18:10 17° 67° (ENE) 23:20:56 437.525
M-CUBED/EXP-1 PRIME 01 Aug 23:20:48 23:25:19 40° 293° (WNW) 23:29:40 437.505
ESTCUBE 1 01 Aug 23:21:46 23:26:18 82° 76° (ENE) 23:30:51 437.505/2401.250
Cosmos 2491 01 Aug 23:22:35 23:31:11 61° 78° (ENE) 23:39:47 435.465 / 435.565
TISAT 1 01 Aug 23:25:18 23:27:04 13° 65° (ENE) 23:29:01 437.305
DUCHIFAT 1 01 Aug 23:33:33 23:37:20 31° 96° (E) 23:41:09 145.980
QB50P1 01 Aug 23:37:18 23:41:14 36° 97° (E) 23:45:12 145.935-145.965
NANOSAT C BR1 01 Aug 23:38:13 23:42:09 36° 98° (E) 23:46:06 145.865
50 SAT 01 Aug 23:39:16 23:42:46 31° 263° (W) 23:46:17 437.505
TIGRISAT 01 Aug 23:40:37 23:45:20 78° 283° (WNW) 23:50:03 435.000
ANTELSAT 01 Aug 23:42:46 23:47:28 72° 285° (WNW) 23:52:10 437.575/2403.000
YUBILEINY 01 Aug 23:43:11 23:50:45 36° 87° (E) 23:58:34 435.215
AUBIESAT-1 01 Aug 23:49:58 23:53:49 24° 297° (WNW) 23:57:30 437.475
UKube-1 01 Aug 23:58:55 00:01:47 17° 268° (W) 00:04:31 .
AISAT 02 Aug 00:06:12 00:09:39 22° 266° (W) 00:13:00 437.250
BEESAT 2 02 Aug 00:11:52 00:15:52 52° 305° (NW) 00:19:55 435.950
AIST 2 02 Aug 00:12:12 00:16:00 33° 115° (ESE) 00:19:53 435.215
CUBEBUG 1 02 Aug 00:17:25 00:21:14 28° 264° (W) 00:24:59 437.445
POLYITAN 1 02 Aug 00:20:37 00:24:53 68° 285° (WNW) 00:29:09 437.675
BEESAT 02 Aug 00:23:58 00:25:09 11° 62° (ENE) 00:26:37 436.000
RS-15 02 Aug 00:24:04 00:33:25 29° 330° (NNW) 00:42:53 29.354- 29.394
ISS 02 Aug 00:24:18 00:24:50 10° 360° (N) 00:25:21 145.825
AIST 1 02 Aug 00:28:12 00:31:13 18° 272° (W) 00:34:05
UNISAT 6 02 Aug 00:35:06 00:38:45 22° 292° (WNW) 00:42:16 437.425
BUGSAT 1 02 Aug 00:37:17 00:41:21 73° 284° (WNW) 00:45:26 437.445
POPSAT HIP 1 02 Aug 00:37:32 00:41:36 44° 287° (WNW) 00:45:40 437.405
PHONESAT 2.4 02 Aug 00:40:57 00:44:18 43° 202° (SSW) 00:47:37 2401.200-2431.200
SWISSCUBE 02 Aug 00:42:22 00:45:37 19° 66° (ENE) 00:49:02 437.505
QB50P2 02 Aug 00:45:33 00:49:27 35° 288° (WNW) 00:53:20 145.880/145.840
SPROUT 02 Aug 00:49:53 00:53:57 42° 262° (W) 00:58:00 437.525
BEESAT 3 02 Aug 00:52:05 00:55:00 18° 315° (NW) 00:57:50 437.485
TISAT 1 02 Aug 00:58:19 01:02:25 54° 260° (W) 01:06:31 437.305
Oscar 19 02 Aug 01:02:20 01:04:12 12° 88° (E) 01:06:25 437.125/150
ITUPSAT 1 02 Aug 01:02:56 01:06:54 27° 68° (ENE) 01:10:59 437.325
DUCHIFAT 1 02 Aug 01:09:43 01:12:58 21° 291° (WNW) 01:16:08 145.980
QB50P1 02 Aug 01:13:50 01:16:52 19° 292° (WNW) 01:19:47 145.935-145.965
NANOSAT C BR1 02 Aug 01:14:43 01:17:44 19° 292° (WNW) 01:20:38 145.865
Cosmos 2491 02 Aug 01:20:27 01:27:32 28° 276° (W) 01:34:20 435.465 / 435.565
YUBILEINY 02 Aug 01:39:05 01:47:25 47° 286° (WNW) 01:55:46 435.215
O/OREOS (USA 219) 02 Aug 01:40:37 01:45:05 88° 112° (ESE) 01:49:37 437.305
AIST 2 02 Aug 01:51:05 01:54:38 25° 312° (NW) 01:58:09 435.215
BEESAT 02 Aug 01:57:34 02:02:23 84° 257° (WSW) 02:07:13 436.000
ISS 02 Aug 02:00:04 02:02:18 17° 20° (NNE) 02:04:34 145.825
Gurwin Techsat 1B 02 Aug 02:07:16 02:10:22 16° 90° (E) 02:13:42 435.225
STARS 02 Aug 02:09:17 02:11:01 12° 64° (ENE) 02:12:57 437.465
SWISSCUBE 02 Aug 02:18:32 02:23:10 46° 261° (W) 02:27:47 437.505
JAS-2 02 Aug 02:23:38 02:26:59 14° 83° (E) 02:30:52 435.910
ITAMSAT 1 02 Aug 02:23:51 02:27:30 20° 92° (E) 02:31:18 435.822/435.867
KKS-1 02 Aug 02:35:43 02:39:49 39° 72° (ENE) 02:43:59 437.445
Oscar 19 02 Aug 02:39:02 02:44:13 75° 285° (WNW) 02:49:24 437.125/150
ITUPSAT 1 02 Aug 02:40:25 02:44:42 31° 264° (W) 02:48:58 437.325
RS-15 02 Aug 02:43:39 02:51:09 19° 5° (N) 02:58:57 29.354- 29.394
Cosmos 2504 02 Aug 02:44:04 02:51:01 63° 92° (E) 02:58:32 435.465 / 435.565
O/OREOS (USA 219) 02 Aug 03:24:30 03:25:17 10° 311° (NW) 03:25:50 437.305
MOZHAYETS 4 02 Aug 03:33:50 03:37:11 21° 68° (ENE) 03:40:41
ISS 02 Aug 03:35:52 03:39:08 88° 31° (NNE) 03:42:24 145.825
HORYU 2 02 Aug 03:36:00 03:37:33 12° 89° (E) 03:39:22 437.375
STARS 02 Aug 03:42:40 03:46:59 62° 260° (W) 03:51:20 437.465
Gurwin Techsat 1B 02 Aug 03:45:36 03:50:50 60° 287° (WNW) 03:56:03 435.225
DANDE 02 Aug 03:46:49 03:47:25 11° 96° (E) 03:48:10 436.750
CUSAT 1 02 Aug 03:58:10 04:00:38 26° 97° (E) 04:02:56 437.405
ITAMSAT 1 02 Aug 04:02:20 04:07:18 47° 289° (WNW) 04:12:13 435.822/435.867
AO-7 02 Aug 04:05:12 04:12:32 35° 96° (E) 04:19:58 29.400- 29.500
JAS-2 02 Aug 04:05:27 04:13:21 76° 102° (ESE) 04:21:04 435.910
KKS-1 02 Aug 04:13:35 04:16:39 18° 268° (W) 04:19:35 437.445
GONETS M04 02 Aug 04:29:19 04:32:56 14° 78° (ENE) 04:37:12
Cosmos 2504 02 Aug 04:38:20 04:43:59 23° 294° (WNW) 04:49:41 435.465 / 435.565
RS-15 02 Aug 04:58:00 05:08:25 37° 38° (NE) 05:19:24 29.354- 29.394
JUGNU 02 Aug 05:08:50 05:09:21 10° 181° (S) 05:09:51 437.505
MOZHAYETS 4 02 Aug 05:09:49 05:14:10 39° 263° (W) 05:18:32
HORYU 2 02 Aug 05:10:11 05:14:40 61° 286° (WNW) 05:19:05 437.375
DANDE 02 Aug 05:28:03 05:30:26 19° 283° (WNW) 05:32:30 436.750
CUBESAT XI-V 02 Aug 05:30:00 05:33:57 29° 70° (ENE) 05:37:59 437.345
JAS-2 02 Aug 05:51:38 05:57:41 24° 299° (WNW) 06:03:26 435.910
AO-7 02 Aug 05:57:36 06:05:38 52° 295° (WNW) 06:13:32 29.400- 29.500
PRISM 02 Aug 06:09:50 06:12:27 17° 67° (ENE) 06:15:13 437.425
GONETS M04 02 Aug 06:19:52 06:28:34 80° 95° (E) 06:37:17
Cubesat XI-IV 02 Aug 06:21:41 06:25:55 25° 93° (E) 06:30:16 437.490
STRAND 1 02 Aug 06:24:18 06:28:52 35° 69° (ENE) 06:33:32 437.568
SRMSAT 02 Aug 07:03:03 07:03:10 10° 182° (S) 07:03:17 437.500
CUBESAT XI-V 02 Aug 07:07:20 07:11:22 27° 266° (W) 07:15:20 437.345
RS-15 02 Aug 07:10:21 07:22:11 78° 242° (WSW) 07:34:22 29.354- 29.394
CUTE-I 02 Aug 07:16:31 07:21:52 81° 102° (ESE) 07:27:11 437.470
Cosmos 2499 02 Aug 07:17:01 07:23:48 42° 88° (E) 07:31:12 435.465 / 435.565
BEESAT 3 02 Aug 07:32:25 07:35:41 23° 48° (NE) 07:38:58 437.485
PRISM 02 Aug 07:43:39 07:47:36 40° 261° (W) 07:51:34 437.425
AO-7 02 Aug 07:54:15 07:56:41 11° 315° (NW) 07:58:37 29.400- 29.500
Cubesat XI-IV 02 Aug 08:01:13 08:06:11 40° 290° (WNW) 08:11:06 437.490
STRAND 1 02 Aug 08:03:46 08:08:08 27° 265° (W) 08:12:27 437.568
GONETS M04 02 Aug 08:20:11 08:26:36 21° 297° (WNW) 08:32:38
DOVE 4 02 Aug 08:20:58 08:24:10 19° 92° (E) 08:27:40 437.250
HO-68 02 Aug 08:22:16 08:27:34 23° 91° (E) 08:33:07 435.675
CUTE 1.7 + AOD 2 02 Aug 08:25:06 08:27:13 14° 90° (E) 08:29:32 437.475
SO-50 02 Aug 08:25:50 08:29:36 24° 112° (ESE) 08:33:33 436.795
BEESAT 2 02 Aug 08:31:32 08:35:36 71° 57° (ENE) 08:39:36 435.950
BRITE-PL 02 Aug 08:32:09 08:36:34 66° 101° (E) 08:41:18 437.365/2234.400
CANX-2 02 Aug 08:32:55 08:35:58 19° 92° (E) 08:39:06 2200.000
M-CUBED/EXP-1 PRIME 02 Aug 08:33:57 08:37:11 23° 62° (ENE) 08:40:41 437.505
AIST 2 02 Aug 08:34:53 08:37:57 20° 45° (NE) 08:41:05 435.215
GOMX 1 02 Aug 08:37:10 08:41:32 44° 99° (E) 08:46:12 467.674
AAUSAT CUBESAT 2 02 Aug 08:44:31 08:45:47 11° 88° (E) 08:47:19 437.432
CUTE-I 02 Aug 08:58:42 09:01:20 13° 299° (WNW) 09:03:41 437.470
AUBIESAT-1 02 Aug 09:01:29 09:05:16 38° 66° (ENE) 09:09:23 437.475
PCSat 02 Aug 09:04:04 09:09:27 74° 116° (ESE) 09:14:53 145.827
BEESAT 3 02 Aug 09:10:03 09:13:40 31° 245° (WSW) 09:17:11 437.485
Cosmos 2499 02 Aug 09:10:20 09:17:06 36° 289° (WNW) 09:24:16 435.465 / 435.565
RS-15 02 Aug 09:25:45 09:33:11 18° 259° (W) 09:39:48 29.354- 29.394
COMPASS 1 02 Aug 09:37:17 09:41:27 58° 100° (E) 09:45:36 437.405
ZACube-1 02 Aug 09:37:34 09:39:52 14° 89° (E) 09:42:25 437.345
SEEDS 02 Aug 09:54:20 09:58:35 69° 284° (WNW) 10:02:47 437.485
YUBILEINY 02 Aug 09:54:56 09:59:58 17° 59° (ENE) 10:05:32 435.215
DELFI C3 02 Aug 09:55:43 09:58:49 21° 94° (E) 10:01:59 145.870
UNISAT 6 02 Aug 09:56:20 10:00:04 29° 70° (ENE) 10:03:58 437.425
POPSAT HIP 1 02 Aug 09:57:02 09:57:52 11° 64° (ENE) 09:58:56 437.405
FUNcube-1 02 Aug 09:57:41 10:01:16 23° 93° (E) 10:04:56 145.935
DOVE 4 02 Aug 09:57:41 10:02:07 44° 286° (WNW) 10:06:45 437.250
CINEMA 3 02 Aug 09:57:52 10:02:37 86° 102° (ESE) 10:07:33 145.822/145.860
CUTE 1.7 + AOD 2 02 Aug 09:59:18 10:03:28 48° 286° (WNW) 10:07:34 437.475
UWE-3 02 Aug 10:02:44 10:06:57 35° 96° (E) 10:11:15 435.000/436.395/437.385
QB50P2 02 Aug 10:03:47 10:05:46 14° 66° (ENE) 10:07:58 145.880/145.840
SO-50 02 Aug 10:05:26 10:09:56 40° 309° (NW) 10:14:34 436.795
Oscar 11 02 Aug 10:07:57 10:12:10 47° 99° (E) 10:16:22 145.826/435.025
CANX-2 02 Aug 10:08:05 10:12:01 34° 288° (WNW) 10:15:53 2200.000
M-CUBED/EXP-1 PRIME 02 Aug 10:08:10 10:11:47 31° 260° (W) 10:15:40 437.505
HO-68 02 Aug 10:08:47 10:15:54 65° 289° (WNW) 10:22:59 435.675
AIST 2 02 Aug 10:12:46 10:16:44 42° 244° (WSW) 10:20:37 435.215
BRITE-PL 02 Aug 10:12:55 10:14:45 12° 294° (WNW) 10:16:24 437.365/2234.400
O/OREOS (USA 219) 02 Aug 10:13:22 10:16:06 16° 54° (NE) 10:18:59 437.305
HUMSAT D 02 Aug 10:14:19 10:16:21 13° 90° (E) 10:18:38 437.325/437.525
GOMX 1 02 Aug 10:16:13 10:19:27 19° 291° (WNW) 10:22:40 467.674
AAUSAT CUBESAT 2 02 Aug 10:17:41 10:21:49 55° 286° (WNW) 10:25:54 437.432
CUBEBUG 2 02 Aug 10:20:35 10:25:15 71° 102° (ESE) 10:29:59 437.445
DUCHIFAT 1 02 Aug 10:25:36 10:28:45 22° 69° (ENE) 10:32:00 145.980
QB50P1 02 Aug 10:29:35 10:32:59 25° 70° (ENE) 10:36:28 145.935-145.965
NANOSAT C BR1 02 Aug 10:30:17 10:33:41 25° 69° (ENE) 10:37:09 145.865
Cosmos 2491 02 Aug 10:32:52 10:35:21 12° 77° (ENE) 10:38:35 435.465 / 435.565
AUBIESAT-1 02 Aug 10:37:19 10:40:12 18° 265° (W) 10:43:07 437.475
TIGRISAT 02 Aug 10:38:27 10:42:46 83° 78° (ENE) 10:47:15 435.000
DX 1 02 Aug 10:40:30 10:43:18 17° 92° (E) 10:46:14 434.975-435.025
ANTELSAT 02 Aug 10:40:47 10:45:08 89° 262° (W) 10:49:38 437.575/2403.000
PCSat 02 Aug 10:49:45 10:53:31 18° 316° (NW) 10:57:09 145.827
VELOX 1 02 Aug 10:59:44 11:02:28 16° 92° (E) 11:05:21 145.980
ZACube-1 02 Aug 11:12:07 11:16:35 54° 286° (WNW) 11:21:04 437.345
POLYITAN 1 02 Aug 11:12:29 11:16:40 80° 77° (ENE) 11:20:54 437.675
COMPASS 1 02 Aug 11:14:52 11:16:40 12° 295° (WNW) 11:18:16 437.405
50 SAT 02 Aug 11:15:12 11:18:40 28° 96° (E) 11:22:08 437.505
ESTCUBE 1 02 Aug 11:16:20 11:19:21 18° 92° (E) 11:22:30 437.505/2401.250
AIST 1 02 Aug 11:19:08 11:22:19 21° 89° (E) 11:25:35
BUGSAT 1 02 Aug 11:26:17 11:30:18 68° 76° (ENE) 11:34:19 437.445
POPSAT HIP 1 02 Aug 11:29:04 11:33:14 67° 260° (W) 11:37:26 437.405
DELFI C3 02 Aug 11:30:24 11:33:53 27° 289° (WNW) 11:37:17 145.870
UNISAT 6 02 Aug 11:33:19 11:36:53 24° 266° (W) 11:40:27 437.425
FUNcube-1 02 Aug 11:33:32 11:37:38 33° 289° (WNW) 11:41:42 145.935
QB50P2 02 Aug 11:37:10 11:41:16 51° 260° (W) 11:45:24 145.880/145.840
CINEMA 3 02 Aug 11:38:09 11:39:16 11° 296° (WNW) 11:40:08 145.822/145.860
UWE-3 02 Aug 11:39:38 11:43:18 23° 291° (WNW) 11:46:53 435.000/436.395/437.385
UKube-1 02 Aug 11:45:14 11:49:35 85° 103° (ESE) 11:53:54 .
Oscar 11 02 Aug 11:45:19 11:48:00 16° 294° (WNW) 11:50:31 145.826/435.025
HUMSAT D 02 Aug 11:48:13 11:52:26 50° 286° (WNW) 11:56:37 437.325/437.525
YUBILEINY 02 Aug 11:49:34 11:58:27 84° 83° (E) 12:07:19 435.215
O/OREOS (USA 219) 02 Aug 11:51:27 11:55:57 56° 252° (WSW) 12:00:26 437.305
AISAT 02 Aug 11:56:15 12:00:41 75° 102° (ESE) 12:05:05 437.250
CUBEBUG 2 02 Aug 11:59:21 12:01:26 13° 295° (WNW) 12:03:19 437.445
HO-68 02 Aug 11:59:35 12:02:28 12° 307° (NW) 12:04:55 435.675
DUCHIFAT 1 02 Aug 12:00:43 12:04:24 29° 264° (W) 12:08:04 145.980
QB50P1 02 Aug 12:05:15 12:08:47 25° 265° (W) 12:12:17 145.935-145.965
NANOSAT C BR1 02 Aug 12:05:55 12:09:27 25° 265° (W) 12:12:56 145.865
CUBEBUG 1 02 Aug 12:06:18 12:10:32 52° 100° (E) 12:14:46 437.445
DX 1 02 Aug 12:15:41 12:19:45 39° 288° (WNW) 12:23:47 434.975-435.025
Oscar 19 02 Aug 12:17:59 12:21:15 18° 64° (ENE) 12:24:42 437.125/150
Cosmos 2491 02 Aug 12:22:10 12:30:52 72° 94° (E) 12:39:34 435.465 / 435.565
Cosmos 2504 02 Aug 12:31:26 12:37:18 21° 64° (ENE) 12:43:38 435.465 / 435.565
VELOX 1 02 Aug 12:35:05 12:39:16 42° 288° (WNW) 12:43:25 145.980
SPROUT 02 Aug 12:37:13 12:41:07 33° 97° (E) 12:45:02 437.525
TISAT 1 02 Aug 12:43:54 12:47:17 24° 95° (E) 12:50:45 437.305
50 SAT 02 Aug 12:50:04 12:53:04 20° 291° (WNW) 12:55:59 437.505
ESTCUBE 1 02 Aug 12:52:13 12:56:26 40° 288° (WNW) 13:00:35 437.505/2401.250
AIST 1 02 Aug 12:55:56 12:59:48 30° 284° (WNW) 13:03:37
Gurwin Techsat 1B 02 Aug 13:27:16 13:31:26 25° 67° (ENE) 13:35:44 435.225
AISAT 02 Aug 13:35:35 13:36:43 11° 297° (WNW) 13:37:35 437.250
ITAMSAT 1 02 Aug 13:40:50 13:45:13 29° 68° (ENE) 13:49:42 435.822/435.867
CUBEBUG 1 02 Aug 13:44:10 13:46:30 14° 294° (WNW) 13:48:38 437.445
YUBILEINY 02 Aug 13:48:27 13:54:19 19° 280° (W) 13:59:41 435.215
Oscar 19 02 Aug 13:55:11 14:00:12 56° 260° (W) 14:05:16 437.125/150
BEESAT 02 Aug 13:59:10 14:03:09 26° 95° (E) 14:07:11 436.000
SPROUT 02 Aug 14:13:46 14:16:59 20° 292° (WNW) 14:20:07 437.525
JAS-2 02 Aug 14:17:21 14:22:34 30° 64° (ENE) 14:28:30 435.910
TISAT 1 02 Aug 14:19:26 14:23:02 27° 290° (WNW) 14:26:35 437.305
SWISSCUBE 02 Aug 14:19:32 14:24:08 47° 99° (E) 14:28:43 437.505
Cosmos 2491 02 Aug 14:21:47 14:28:41 24° 295° (WNW) 14:35:16 435.465 / 435.565
Cosmos 2504 02 Aug 14:22:06 14:30:35 83° 264° (W) 14:39:13 435.465 / 435.565
DANDE 02 Aug 14:23:13 14:24:59 13° 74° (ENE) 14:27:12 436.750
CUSAT 1 02 Aug 14:31:16 14:35:03 28° 77° (ENE) 14:39:55 437.405
HORYU 2 02 Aug 14:34:34 14:35:39 11° 63° (ENE) 14:36:59 437.375
ITUPSAT 1 02 Aug 14:41:07 14:45:55 71° 102° (ESE) 14:50:40 437.325
AO-7 02 Aug 15:03:06 15:10:50 45° 64° (ENE) 15:18:41 29.400- 29.500
Gurwin Techsat 1B 02 Aug 15:06:12 15:11:13 41° 262° (W) 15:16:14 435.225
ITAMSAT 1 02 Aug 15:19:55 15:24:39 34° 264° (W) 15:29:20 435.822/435.867
STARS 02 Aug 15:33:32 15:37:10 25° 95° (E) 15:40:52 437.465
BEESAT 02 Aug 15:36:47 15:41:00 31° 291° (WNW) 15:45:08 436.000
SWISSCUBE 02 Aug 15:58:20 16:01:39 18° 294° (WNW) 16:04:49 437.505
JAS-2 02 Aug 16:01:32 16:07:22 46° 264° (W) 16:13:56 435.910
KKS-1 02 Aug 16:03:36 16:08:06 88° 290° (WNW) 16:12:35 437.445
DANDE 02 Aug 16:04:11 16:08:03 49° 262° (W) 16:13:12 436.750
HORYU 2 02 Aug 16:07:18 16:11:44 74° 258° (WSW) 16:16:13 437.375
CUSAT 1 02 Aug 16:13:38 16:17:33 28° 263° (W) 16:22:20 437.405
Cosmos 2504 02 Aug 16:17:01 16:21:45 15° 281° (W) 16:25:58 435.465 / 435.565
ITUPSAT 1 02 Aug 16:21:03 16:23:16 13° 297° (WNW) 16:25:14 437.325
